This is the latest recevied weather packets stored in our database for station/object LA3SP-1. If no packets are shown the sender has not sent any weather packets the latest 10 day(s).
| Time | Temp. | Humidity | Pressure | Rain* | Wind** | Luminosity | Snow |
|---|---|---|---|---|---|---|---|
| 1778137031 | -1.67° C | 69% | 1010.3 hPa | 0 mm | - | - | - |
| 1778136430 | -2.22° C | 69% | 1010.4 hPa | 0 mm | - | - | - |
| 1778135227 | -3.33° C | 71% | 1010.1 hPa | 0 mm | - | - | - |
| 1778134625 | -3.33° C | 71% | 1010 hPa | 0 mm | - | - | - |
| 1778132822 | -5° C | 73% | 1010 hPa | 0 mm | - | - | - |
| 1778132243 | -5.56° C | 74% | 1010 hPa | 0 mm | - | - | - |
| 1778132220 | -5° C | 74% | 1010 hPa | 0 mm | - | - | - |
| 1778131620 | -5.56° C | 74% | 1010 hPa | 0 mm | - | - | - |
| 1778127409 | -6.11° C | 73% | 1009.5 hPa | 0 mm | - | - | - |
| 1778125004 | -6.11° C | 72% | 1009.5 hPa | 0 mm | - | - | - |
| 1778124402 | -5.56° C | 71% | 1009.4 hPa | 0 mm | - | - | - |
| 1778123199 | -5.56° C | 72% | 1009.3 hPa | 0 mm | - | - | - |
| 1778122598 | -5.56° C | 72% | 1009.2 hPa | 0 mm | - | - | - |
| 1778121395 | -6.11° C | 74% | 1009.1 hPa | 0 mm | - | - | - |
| 1778120794 | -6.11° C | 73% | 1009.2 hPa | 0 mm | - | - | - |
| 1778118989 | -6.11° C | 74% | 1009 hPa | 0 mm | - | - | - |
| 1778118388 | -6.11° C | 73% | 1009.1 hPa | 0 mm | - | - | - |
| 1778117186 | -5.56° C | 72% | 1009 hPa | 0 mm | - | - | - |
| 1778116584 | -5.56° C | 71% | 1009 hPa | 0 mm | - | - | - |
| 1778115983 | -5° C | 71% | 1009.1 hPa | 0 mm | - | - | - |
| 1778114780 | -4.44° C | 70% | 1009 hPa | 0 mm | - | - | - |
| 1778114179 | -4.44° C | 70% | 1009 hPa | 0 mm | - | - | - |
| 1778112976 | -4.44° C | 70% | 1008.8 hPa | 0 mm | - | - | - |
| 1778112374 | -4.44° C | 70% | 1008.7 hPa | 0 mm | - | - | - |
| 1778110571 | -4.44° C | 70% | 1008.6 hPa | 0 mm | - | - | - |
* Rain latest 24 hours (hover to see other rain measurements)
** Current wind speed in m/s (hover to see current wind gust speed)